STARLINK-5665, 55361

Orbit data source: Space-Track

STARLINK-5665, 55361 is a payload satellite owned by SpaceX/Seattle (US) in LEO that was launched on Thu, 26 Jan 2023 UTC via an FALCON 9 launch vehicle from the Air Force Eastern Test Range (AFETR). Payload-class satellites include a variety of spacecraft equipped with specific instruments for various scientific and technological missions. These include communications satellites like Starlink; space stations such as the ISS; scientific satellites like the Hubble; Earth observation satellites from companies like Planet Labs, Umbra, and HawkEye 360; GPS; miniature CubeSats for education and research; and military/defense satellites.

Loading next visibility...
Identifier
55361, 2023-013AG
Orbit
LEO
Country
Flag of USUS
Related business
Manufacturer
SpaceX/Seattle
Mission
Operational Commercial Communications
Bus & Motor
STARLINK, Unknown motor
Mass
305 kg wet, ~290 kg dry
Launch date (UTC)
2023-01-26 (3 years ago)
Launch vehicle
FALCON 9
Launch site
Air Force Eastern Test Range (AFETR)
Object type
Payload
Rocket body
Debris
Shape & HBR
Box + 1 Pan, 10.1 m
Radar Cross Section
13.562 m², Large (>1 m²)

Expand to show TLE details & history
Last TLE update: 19 hours ago

TLE from 19 hours ago
0 STARLINK-5665
1 55361U 23013AG  25348.81063323  .00000634  00000-0  62004-4 0  9996
2 55361  43.0065  28.3393 0001601 266.1511  93.9149 15.02528200159092
Epoch: 2025-12-14T19:27Z
TLE epoch observation values (Epoch: 2025-12-14T19:27:18.711Z)
Latitude
0.00004°
Longitude
12.79318°
Altitude
558.958 km
Speed
7.584 km/s
True Right ascension
01h 53m 21s
True Declination
0° 00' 00"
Sunlit
Object was in full shadow at epoch
Visualization orbit readout
Latitude
Unknown
Longitude
Unknown
Altitude
Unknown
Speed
Unknown
Apparent Right ascension
Unknown
Apparent Declination
Unknown
Sunlit
N/A
Visualization observer readout
Local Sidereal Time
13:24:46
Azimuth
Unknown
Elevation
Unknown
Doppler factor
Unknown
Orbital elements
Apogee altitude
562.137 km
Perigee altitude
559.915 km
Semi-major axis
6,939.163 km
Eccentricity
0.00016
Inclination
43.0065°
RAAN
28.3393°
Arg. of periapsis
266.1511°
True anomaly
93.9332°
Mean anomaly
93.9149°
Eccentric anomaly
93.92405°
Mean motion
3.75476 °/min
Orbital period
95.88 mins
BSTAR
0.000062004
Loading maneuver chart data...
Computing Atmospheric mass density...
Loading historical data...
Loading historical data...
Loading historical data...
Loading historical data...
Loading historical data...
Loading historical data...
Loading historical data...

Documentation

Showing up to 5 results
|